RH
4 3 3 4 3 4 4 4 4 5 5 4 5 5 6 9 12 17 23 28 34 42 48 55 60 63 65 69 71 72 71 71 71 68 67 67 68 68 69 71 72 72 72 71 68 66 68 69 67 66 67 67 64 63 64 65 64 63 62 63 61 61 62 63 62 62 61 61 61 62 63 63 62 60 60 60 60 60 59 59 59 57 57 56 54
4 4 4 4 4 4 4 4 5 5 5 5 5 5 5 6 7 10 15 20 25 32 40 47 54 58 63 66 70 74 74 75 75 72 69 68 67 66 67 68 68 66 65 65 63 61 61 61 59 57 58 60 60 58 57 58 59 58 57 58 60 59 60 60 61 61 60 60 59 59 61 64 65 65 63 62 61 61 61 61 60 59 58 57 56
6 6 6 6 6 6 6 6 6 5 6 5 5 6 5 5 5 6 8 13 18 24 30 36 43 49 55 60 63 69 73 74 74 72 69 69 68 67 67 67 67 65 63 60 57 57 57 55 52 48 47 50 53 53 50 49 51 53 53 52 53 54 55 55 56 57 57 57 57 57 57 59 62 64 65 64 64 65 64 63 62 60 59 58 58
9 9 9 9 9 9 8 8 8 8 8 8 7 7 7 7 7 7 7 8 12 16 21 26 32 38 45 51 54 60 67 69 70 70 67 64 62 58 56 56 57 57 54 47 42 42 43 41 37 33 32 33 35 35 34 34 36 40 43 43 45 48 50 51 52 52 52 52 53 53 54 54 55 57 59 61 64 64 64 65 65 63 62 61 60
10 11 11 11 11 11 11 11 11 10 10 10 10 10 9 9 9 9 9 9 9 11 15 19 24 30 36 44 50 55 61 64 65 62 52 43 39 35 32 32 33 33 30 26 23 22 22 22 21 20 20 20 20 21 21 22 23 25 28 30 33 38 42 45 49 51 51 50 50 49 50 50 50 51 51 53 56 58 60 61 62 62 62 61 60
12 13 13 13 13 13 13 13 12 12 12 12 12 11 11 11 11 10 10 10 11 11 13 16 19 23 30 40 48 54 57 59 57 47 31 24 22 20 19 18 19 19 17 16 15 15 15 15 16 17 17 17 17 17 18 19 20 21 22 23 25 28 31 35 42 49 52 52 51 50 50 49 48 48 48 48 49 53 55 56 57 58 58 58 57
13 14 14 15 15 15 15 15 15 14 14 14 13 13 13 12 12 12 12 12 13 14 15 17 19 22 29 37 43 48 50 50 47 36 24 20 20 19 18 18 18 18 18 17 16 16 16 15 16 17 18 18 17 17 19 19 20 22 23 23 24 25 27 28 33 41 49 53 54 53 53 52 50 49 49 47 46 47 51 53 54 55 55 55 55
14 14 15 15 15 16 16 16 16 16 16 16 15 15 15 15 14 14 14 14 15 17 18 20 23 25 29 33 36 39 39 38 36 32 25 22 22 21 21 21 21 21 20 19 19 18 18 17 18 18 19 19 19 20 21 22 23 24 25 25 26 26 27 28 29 33 40 47 52 54 54 54 53 52 51 50 48 44 45 48 51 52 53 53 53
14 14 15 16 16 16 17 17 17 17 17 18 17 18 17 17 17 16 16 16 16 18 20 22 25 26 28 30 31 32 32 32 32 31 27 24 25 25 24 24 24 24 23 22 21 21 20 20 20 20 21 21 21 23 24 26 26 27 28 28 29 29 29 29 30 31 34 38 44 49 51 52 53 53 52 52 51 47 44 44 47 48 49 50 50
14 14 15 16 16 17 17 17 18 18 19 19 19 20 20 19 19 19 18 18 18 19 20 23 25 25 26 28 29 29 30 32 33 31 28 27 28 28 27 27 27 27 26 25 24 24 23 22 22 22 23 23 24 25 28 30 30 31 32 32 32 32 32 31 31 31 31 33 36 39 42 45 47 49 49 48 49 49 46 45 45 45 46 46 47
14 14 14 15 16 17 18 18 19 19 20 21 21 22 23 22 22 22 21 21 20 21 22 23 25 24 24 26 28 29 31 34 34 31 30 31 31 31 30 30 30 30 29 28 27 26 25 25 24 25 25 26 27 29 31 33 34 35 36 36 35 34 33 32 31 30 30 29 29 30 31 33 35 37 38 37 38 42 43 44 44 43 42 42 42
14 14 14 15 16 16 18 18 19 20 21 22 23 24 26 26 27 26 25 25 25 25 24 24 25 25 24 26 28 31 35 37 36 34 34 35 34 34 34 34 33 33 32 30 30 28 27 27 27 28 29 29 30 32 34 36 38 38 38 37 36 34 33 31 30 28 27 26 25 24 24 24 24 25 26 26 27 28 31 35 37 37 38 39 38
13 14 14 15 16 17 18 19 20 21 22 23 25 26 28 29 30 30 29 30 29 29 29 29 29 29 29 31 33 36 39 41 41 40 40 39 38 37 37 37 36 35 34 32 32 31 30 31 31 32 32 33 35 36 38 40 40 39 38 37 34 32 30 29 28 25 24 24 22 21 21 21 20 20 20 20 21 20 21 25 27 27 29 32 31
14 14 15 16 17 18 19 20 21 22 23 25 27 29 30 31 32 32 32 34 35 34 34 35 35 36 37 38 39 42 46 49 50 49 48 46 44 42 41 41 40 38 36 35 35 34 33 34 35 35 36 37 38 39 40 40 39 37 35 33 31 28 27 26 25 24 22 22 22 21 21 21 20 20 20 20 20 20 19 20 21 21 22 24 24
15 15 16 17 18 19 20 21 23 24 25 27 29 30 33 34 35 35 34 36 39 40 40 42 44 45 46 46 48 53 57 59 59 58 58 57 54 51 48 46 44 41 39 39 38 37 37 37 37 38 38 37 37 36 36 33 31 30 29 27 26 26 26 26 25 25 25 25 25 24 24 24 23 23 22 22 21 21 20 20 20 20 21 21 21
16 17 17 19 20 21 23 24 25 27 29 31 32 34 36 36 38 38 38 40 42 45 48 51 53 54 53 53 56 59 61 63 65 68 70 70 66 63 59 54 50 46 43 42 41 40 40 40 38 36 34 31 30 28 26 25 24 24 24 25 25 26 26 26 26 26 26 25 25 24 24 24 23 23 22 22 22 21 21 21 20 20 21 21 21
16 18 19 20 22 23 25 28 30 32 35 38 39 42 43 43 43 43 44 46 48 53 59 62 65 68 67 66 66 67 68 68 71 76 81 83 80 76 72 66 58 53 49 46 45 43 41 39 34 30 27 23 22 21 21 22 23 24 25 25 26 26 25 25 25 24 24 23 23 23 23 22 22 22 22 22 21 21 21 21 20 20 20 21 21
18 19 20 21 22 25 28 31 35 39 43 47 48 51 52 51 50 50 51 53 56 62 69 75 82 87 89 89 90 89 88 85 85 87 90 93 93 86 81 79 72 64 58 53 50 46 40 34 28 23 20 19 19 21 22 24 25 25 25 25 25 25 25 24 24 24 24 24 24 24 24 24 23 23 23 23 22 22 21 21 21 20 20 20 21
19 19 20 22 23 26 31 37 43 48 53 54 55 56 56 54 54 54 54 57 61 67 73 81 89 94 98 100 101 100 100 99 98 98 97 99 101 93 83 85 87 79 72 65 56 46 36 27 22 19 18 19 20 22 24 24 25 25 25 25 25 25 25 25 25 26 26 26 27 26 26 26 25 25 24 24 23 23 22 21 21 20 20 20 20
17 18 20 21 22 26 35 44 51 56 60 60 60 61 60 59 59 59 61 65 68 72 77 85 89 91 97 100 100 100 101 100 100 101 100 100 104 99 82 80 90 92 88 80 61 43 31 22 19 18 18 20 22 23 24 24 24 25 25 25 25 26 27 27 27 28 28 28 28 28 28 27 26 26 25 25 24 23 22 22 21 20 20 20 19
17 18 20 21 22 27 38 50 59 64 66 66 66 66 65 66 68 71 75 77 80 84 88 89 85 83 92 99 100 100 101 101 100 100 100 99 103 105 87 74 86 97 99 92 66 39 27 20 18 19 19 22 23 23 24 24 24 25 25 26 27 27 28 29 29 30 29 30 30 29 29 27 27 26 25 25 24 23 22 21 21 20 20 19 19
18 20 22 24 24 31 43 55 64 68 68 69 71 73 75 78 81 84 87 89 91 93 91 86 79 77 87 98 101 101 100 100 100 99 101 99 101 107 95 76 82 96 101 98 71 38 26 22 19 21 22 23 24 23 23 23 23 24 25 26 27 27 29 29 30 31 30 30 31 30 29 28 27 27 26 25 24 23 22 21 21 20 20 20 19
22 23 25 27 30 39 50 57 63 66 69 73 76 79 82 85 87 90 92 91 90 89 86 81 78 79 85 93 98 100 101 101 100 100 101 100 100 106 96 77 80 93 100 99 72 37 27 26 23 25 24 24 24 23 23 24 24 25 26 27 28 28 29 29 30 31 31 31 31 30 30 29 28 27 26 25 24 23 22 22 21 20 20 20 19
25 26 29 33 38 45 51 55 60 65 69 74 77 82 87 89 92 94 95 93 90 91 88 82 83 84 81 83 89 93 95 96 95 97 101 100 101 102 90 75 78 86 96 100 72 36 29 30 28 29 28 26 27 25 25 26 26 27 27 28 29 29 30 30 31 31 31 32 32 31 30 29 28 28 27 25 24 23 23 22 21 21 20 19 19
28 30 33 38 44 51 58 64 69 74 78 83 87 91 96 97 100 100 99 99 99 99 97 91 91 89 77 73 78 79 80 87 92 96 101 102 102 97 83 74 79 81 91 100 73 37 32 34 31 32 32 30 30 29 29 29 28 29 29 29 30 30 31 32 32 33 32 32 32 32 31 30 29 28 27 26 25 24 23 22 22 21 20 19 19
33 34 37 43 51 61 71 77 82 88 92 95 96 98 100 100 101 101 100 101 100 100 100 97 93 89 77 68 71 74 81 93 99 99 101 102 102 96 84 80 82 80 88 98 73 40 35 38 35 37 36 34 35 33 32 32 31 32 32 32 33 33 33 34 34 34 34 33 33 32 31 30 29 29 28 27 26 25 24 23 22 22 20 20 19
38 40 45 52 61 71 80 86 93 98 99 100 100 100 101 100 99 99 97 98 98 98 100 97 92 90 81 71 75 86 93 98 99 100 101 101 101 100 95 93 89 82 89 96 72 44 41 43 41 42 41 39 39 37 36 36 35 35 35 35 35 35 35 36 36 36 35 34 34 33 32 32 30 29 29 27 27 26 25 24 23 22 22 21 20
44 49 56 66 74 79 84 90 94 97 98 100 100 99 99 98 97 98 98 99 100 98 98 97 95 94 91 86 91 100 100 98 100 102 101 99 100 100 100 101 96 87 92 92 68 48 49 49 47 47 46 44 43 41 40 40 39 39 39 38 38 38 38 38 37 37 37 36 36 35 34 33 31 31 30 29 28 27 26 25 25 24 23 22 21
53 61 69 77 80 78 80 85 88 92 96 97 96 95 97 99 99 100 102 102 102 99 98 99 99 98 97 98 100 101 100 100 101 101 100 100 101 99 101 104 98 92 94 86 63 54 57 55 53 53 50 48 47 45 44 43 42 42 42 42 42 41 41 40 39 39 38 38 37 36 35 34 33 33 32 30 30 29 28 26 26 26 25 24 23
65 72 75 73 73 74 78 81 82 83 82 80 77 79 88 97 99 100 100 99 98 98 99 100 101 100 99 99 100 100 100 101 100 100 101 100 99 100 101 99 94 94 92 77 61 60 62 59 59 58 55 53 51 48 48 46 45 45 45 45 45 45 44 43 42 41 40 39 38 38 37 37 36 34 34 33 33 32 31 30 29 29 28 27 26
68 69 67 66 69 71 70 66 59 52 47 46 46 49 60 74 83 89 93 95 95 97 100 101 101 101 100 99 100 100 100 100 100 100 100 99 100 101 97 94 95 95 84 69 64 66 65 64 63 61 59 57 54 52 51 50 49 49 49 48 48 47 46 45 44 43 42 40 40 39 38 38 37 36 35 35 35 35 35 34 34 33 32 31 29
63 62 64 66 64 55 45 35 27 21 17 18 20 23 32 47 63 79 90 93 95 98 100 101 100 99 99 99 100 100 100 100 100 100 100 100 100 98 95 97 95 86 73 67 69 70 68 69 67 64 63 61 58 56 54 52 52 52 52 53 51 49 48 47 47 46 44 43 41 39 38 38 37 36 36 35 35 36 37 37 37 36 35 34 32
62 65 67 61 46 32 22 14 10 8 7 8 12 18 30 48 67 86 95 94 95 98 99 98 99 99 100 100 100 100 100 100 99 100 100 99 98 97 97 94 85 75 72 73 75 74 74 73 70 68 66 64 61 60 57 56 55 55 57 58 56 53 51 49 48 47 45 44 42 40 40 39 38 38 37 37 37 38 39 39 38 37 37 36 34
65 65 57 41 23 13 9 5 5 5 5 8 14 24 40 57 75 92 100 99 97 99 99 99 100 100 100 100 100 100 100 100 99 99 99 98 98 96 91 83 76 76 78 79 79 79 78 75 72 71 68 66 64 63 61 60 59 59 61 61 59 56 53 50 49 47 45 44 42 42 41 40 40 40 39 41 43 44 44 43 41 40 39 37 36
61 50 32 15 7 5 4 4 5 5 7 11 19 30 44 57 70 85 98 102 101 99 100 100 100 100 100 100 100 99 99 98 98 98 98 97 94 88 82 79 80 82 84 84 84 83 81 78 76 73 71 69 67 66 65 64 63 63 63 62 60 57 53 51 49 47 46 45 43 43 42 42 41 41 41 45 48 50 50 47 44 43 41 39 37
45 27 11 4 4 4 4 5 5 6 10 15 24 35 46 55 64 74 86 94 96 97 99 100 100 100 99 99 98 97 97 97 97 96 95 92 88 84 85 87 88 89 89 88 87 86 84 82 78 75 74 72 70 69 69 67 66 65 64 62 60 56 53 51 49 48 47 46 45 46 44 43 42 41 43 49 55 58 56 51 48 45 42 41 37
22 9 4 4 4 4 4 5 6 8 13 19 28 36 43 50 58 65 73 81 86 91 95 98 99 99 99 99 98 97 97 96 95 93 91 90 90 90 92 93 92 92 92 92 91 89 88 85 80 78 78 76 74 73 72 70 68 65 63 61 58 56 53 51 50 50 49 48 48 48 46 45 44 43 47 56 64 66 63 57 55 53 48 44 40
7 4 4 4 4 4 5 5 6 10 15 22 30 36 41 46 51 58 66 73 78 84 89 92 95 96 96 96 95 94 94 94 94 93 92 93 94 94 94 94 94 93 93 94 93 90 88 86 83 82 81 79 77 75 73 71 67 64 63 60 57 56 55 54 53 52 51 51 50 49 48 47 44 46 55 65 71 73 71 67 66 64 59 54 50
4 4 4 4 4 4 5 6 8 11 16 23 29 35 40 43 47 52 59 65 72 78 83 87 90 91 91 92 91 92 93 94 95 95 95 95 96 97 98 97 96 95 93 93 92 89 88 88 86 84 82 80 78 75 72 69 65 62 61 60 58 58 58 57 56 55 54 53 52 51 50 49 50 58 67 71 72 77 79 75 75 74 66 58 57
4 4 4 4 5 5 6 7 8 12 18 24 29 34 38 41 45 50 55 60 67 72 77 81 84 86 89 90 91 93 93 94 94 94 95 97 98 99 99 99 97 95 92 91 91 91 90 89 88 85 81 79 76 73 69 67 64 62 62 62 63 63 62 62 61 60 58 56 55 52 51 54 62 70 75 74 72 78 84 87 90 84 69 62 67
4 5 5 5 5 6 6 8 11 15 20 25 29 33 37 40 44 49 54 59 64 69 73 77 80 83 86 87 88 90 91 92 93 93 95 97 98 97 98 97 95 93 91 91 92 91 90 89 87 83 79 75 74 72 70 67 66 66 67 69 71 69 68 67 65 63 62 58 56 54 55 63 72 76 76 75 73 81 92 99 100 92 82 85 87
5 5 5 6 6 6 7 10 13 17 21 25 29 33 37 41 45 49 53 56 60 65 69 72 75 78 80 82 84 86 87 89 90 90 92 94 95 95 95 95 94 93 92 91 91 90 89 86 83 80 77 75 74 74 73 72 73 74 76 79 80 77 76 75 71 68 65 60 57 58 64 72 78 78 78 78 81 91 100 101 99 98 98 98 88
5 5 6 6 6 7 8 10 14 17 20 24 29 33 37 41 45 48 52 55 58 62 65 67 70 71 74 76 78 81 83 84 86 87 88 90 92 92 93 94 93 91 91 91 90 88 86 84 82 80 79 79 79 79 79 80 81 82 84 86 87 86 85 85 80 74 69 64 64 68 73 78 80 82 83 85 91 98 98 95 97 98 92 83 73
5 6 6 6 7 8 9 11 14 18 20 23 28 32 36 40 43 47 50 53 56 60 62 64 66 67 70 71 73 75 76 78 80 81 83 85 87 87 88 90 90 88 88 87 87 86 85 84 84 84 84 85 85 85 86 87 87 88 89 90 92 93 93 92 88 81 76 73 74 77 80 82 83 86 88 88 90 92 91 91 92 89 80 73 68
6 6 6 7 7 8 10 13 15 17 21 24 27 31 35 38 41 43 46 49 52 55 58 60 61 64 66 68 71 73 73 73 75 77 78 81 82 83 85 88 88 88 87 86 86 86 86 86 86 87 88 89 89 89 90 91 92 92 91 91 92 93 92 91 89 86 84 83 83 84 85 86 87 88 90 89 90 92 93 93 91 85 79 73 66
6 6 7 7 8 9 11 13 15 18 20 23 26 30 33 36 38 41 43 46 48 51 53 54 56 59 61 63 66 69 70 72 74 74 76 78 79 80 82 86 89 89 87 86 86 87 87 88 90 90 88 88 89 90 91 93 94 92 89 89 89 88 88 89 88 88 88 89 90 90 90 90 91 93 95 97 98 97 95 93 90 86 80 73 67
6 7 7 8 9 10 12 13 15 17 20 23 26 29 32 35 37 39 42 44 46 48 50 51 53 55 57 59 61 63 65 69 71 72 74 76 78 79 80 84 88 90 89 88 89 89 92 93 92 90 88 86 87 88 89 90 91 90 88 89 88 85 84 85 85 85 87 89 91 93 94 97 99 101 103 104 102 99 96 94 92 88 81 74 70
7 7 7 8 9 10 11 13 14 16 19 22 25 27 30 33 36 38 40 42 45 47 49 50 51 53 55 57 59 61 62 65 69 71 73 75 78 79 81 85 90 89 88 89 89 91 94 96 93 88 85 82 82 84 86 87 88 90 91 90 86 84 86 87 87 87 86 87 88 90 92 95 98 99 101 101 99 96 94 93 91 88 81 74 69
7 7 8 8 9 10 11 12 14 15 18 21 23 26 28 30 33 36 38 39 42 46 48 49 51 53 55 57 59 61 62 64 67 70 73 77 80 81 80 85 91 93 92 90 91 94 97 97 94 89 86 81 78 80 84 84 84 87 86 83 81 83 84 84 83 82 79 75 72 72 75 80 85 88 89 91 93 92 91 90 90 89 83 75 70
7 8 8 9 10 11 12 13 14 15 17 19 22 25 27 29 32 34 35 37 39 42 45 47 47 49 51 52 53 53 54 54 54 55 58 64 72 77 75 73 76 81 85 84 83 86 90 91 86 80 78 75 73 74 77 79 82 84 83 82 85 87 87 87 86 82 76 69 66 70 76 80 82 83 85 88 92 92 90 90 92 92 86 77 72
8 8 9 9 11 11 12 13 14 15 16 18 21 24 26 28 30 31 32 33 33 34 37 38 38 39 40 39 40 40 40 41 41 41 42 45 51 61 68 68 64 65 70 74 77 80 87 91 88 83 79 76 74 75 76 78 81 85 88 92 95 94 95 98 94 84 79 78 81 87 90 88 86 87 88 91 93 92 91 91 92 94 89 80 74
Wind_Speed
19 18 18 18 18 18 18 18 19 19 19 20 20 21 21 21 22 22 22 23 24 24 25 26 28 29 31 32 33 35 36 37 39 39 40 41 41 42 43 44 44 45 45 45 46 46 46 45 45 46 46 46 46 46 46 46 46 46 46 45 45 45 45 46 48 49 50 51 52 52 53 54 54 55 55 54 54 54 54 53 53 52 51 51 51
20 20 20 20 21 21 21 21 21 21 21 22 22 22 22 23 23 23 23 24 25 25 26 27 28 30 31 33 34 35 37 38 39 40 40 41 42 43 44 44 45 46 47 48 48 49 49 49 50 51 51 51 50 51 51 50 50 50 49 49 49 48 47 48 48 49 49 50 50 51 51 52 54 55 56 56 56 57 57 57 57 56 55 54 54
21 22 22 22 22 22 23 23 23 24 24 24 25 25 25 25 25 25 25 26 26 27 28 29 30 31 32 33 34 36 37 38 39 41 42 44 45 46 47 47 48 49 51 52 52 53 53 54 55 55 56 55 55 56 56 55 55 54 54 54 53 53 52 51 51 51 51 51 51 51 50 50 50 51 53 54 55 56 56 57 58 58 57 56 55
22 23 23 23 24 24 25 25 25 26 26 27 27 28 28 28 28 28 28 28 29 29 30 30 31 32 33 34 36 37 38 39 41 44 46 48 49 50 51 52 52 53 55 55 55 55 55 56 56 56 56 56 56 56 56 56 56 56 57 57 56 56 56 55 55 55 55 54 54 54 53 52 51 50 49 49 51 52 52 54 54 55 55 55 54
22 24 24 24 25 25 26 26 27 27 28 29 29 30 30 31 31 31 31 32 32 32 32 33 34 34 35 36 37 39 40 42 44 46 49 51 52 53 53 53 53 54 54 54 54 54 54 54 53 53 53 53 53 53 53 53 53 54 55 56 56 57 57 56 57 57 58 58 58 57 56 56 55 53 51 50 49 50 51 51 52 52 53 52 52
23 24 25 25 26 26 26 27 28 28 29 30 30 31 32 32 33 34 34 34 34 35 35 35 36 37 37 39 40 41 43 44 47 49 51 51 51 52 52 51 51 52 52 52 52 52 52 51 51 51 51 51 51 51 51 51 51 51 52 52 53 55 56 56 57 57 58 59 60 60 59 59 59 58 57 55 52 51 51 51 51 51 52 52 52
24 25 25 26 27 27 27 28 29 29 30 31 31 32 33 34 34 35 36 36 36 37 37 38 38 39 40 41 43 44 46 47 49 51 51 50 50 50 50 50 50 50 51 51 51 51 51 50 50 49 50 50 50 50 50 50 50 50 50 50 51 52 53 54 55 56 57 58 59 60 61 61 61 61 60 60 58 55 53 52 52 52 53 53 53
24 25 26 27 28 29 29 29 30 31 31 32 33 34 34 35 36 37 37 38 38 38 39 40 40 41 42 44 45 47 48 49 50 52 52 51 50 50 50 50 49 49 50 50 51 51 50 49 48 48 48 49 49 49 49 49 49 50 50 50 50 50 51 52 53 54 55 56 57 58 60 60 61 61 62 62 62 61 58 55 54 53 53 53 54
26 26 27 28 30 31 31 31 32 32 33 34 35 35 36 37 38 39 39 39 40 40 41 42 43 44 45 46 48 49 49 50 52 53 52 51 51 51 50 50 49 49 49 50 50 50 50 49 48 47 47 48 48 47 48 48 48 48 49 49 49 49 50 50 51 51 52 53 53 54 56 58 58 59 61 62 63 64 63 61 58 57 55 54 53
28 28 29 30 31 32 33 34 34 34 35 36 36 37 37 38 39 41 41 41 41 42 43 44 45 46 47 49 50 50 51 52 53 54 53 52 51 51 51 50 49 48 48 49 49 49 49 48 47 47 47 47 47 46 46 46 47 47 47 47 48 48 48 49 49 50 50 50 51 51 52 53 55 56 57 58 60 62 64 64 62 60 60 57 55
31 31 31 32 34 34 35 36 35 36 36 37 37 38 39 40 41 42 42 42 43 43 44 46 47 49 49 50 51 52 52 53 54 54 53 53 52 52 52 51 49 48 47 48 48 48 47 47 46 46 46 46 46 46 45 45 45 45 46 46 46 46 47 47 47 48 48 48 49 49 49 50 51 52 53 54 56 58 61 63 63 62 61 61 59
34 34 34 35 37 38 37 37 37 38 38 38 39 39 40 41 42 43 43 43 44 45 46 47 49 50 51 52 53 53 53 54 55 54 54 53 53 52 52 50 49 48 47 46 47 47 46 45 45 45 45 45 45 45 44 44 44 44 44 44 45 45 45 45 46 46 46 47 47 47 48 48 49 50 51 52 53 54 57 59 61 61 61 61 60
36 36 37 38 40 40 40 40 39 40 40 41 41 41 42 43 43 44 44 43 44 46 47 48 49 50 51 52 53 53 53 54 54 54 54 54 53 53 51 50 49 47 46 45 46 46 45 44 44 44 44 44 43 43 43 43 43 43 43 43 43 44 44 44 45 45 45 45 46 46 46 47 47 48 49 50 51 52 54 56 58 59 60 60 59
37 38 39 41 41 42 42 42 42 42 42 43 43 44 44 45 45 45 45 44 45 46 47 48 49 49 51 52 52 52 52 53 53 53 53 53 53 52 51 50 49 47 46 45 45 44 44 43 43 43 42 42 42 42 42 42 42 42 42 42 42 42 43 43 43 44 44 44 45 45 45 46 46 47 47 48 50 51 52 54 55 57 58 59 58
38 40 41 42 43 43 43 43 44 44 44 45 46 46 47 48 48 47 47 46 46 47 47 47 48 49 51 52 52 52 52 51 51 51 52 52 52 52 51 50 49 48 46 45 44 44 43 42 42 42 41 41 41 41 41 41 41 41 41 41 41 42 42 42 43 43 43 44 44 45 45 45 45 46 46 47 48 49 50 51 53 55 57 57 57
39 41 43 44 44 45 45 45 46 46 47 48 48 49 50 51 51 51 50 48 48 48 48 48 49 50 50 51 51 51 51 51 50 50 51 52 53 53 52 51 50 49 47 45 44 43 42 42 41 41 41 40 40 39 39 40 40 40 40 40 41 41 42 42 42 43 43 43 44 44 45 45 45 45 46 46 47 48 49 50 51 53 55 56 56
40 42 43 45 45 46 46 46 47 48 49 51 51 52 54 54 55 55 54 52 51 49 50 51 52 52 53 52 52 52 53 53 52 52 52 54 55 55 54 52 51 49 47 45 44 43 42 41 41 40 40 39 39 39 39 39 40 40 40 40 40 41 42 42 43 43 43 43 44 44 44 45 45 45 46 46 46 47 47 48 49 50 53 55 56
42 43 44 46 46 46 47 47 49 50 51 53 54 55 57 58 59 59 57 56 53 51 51 52 54 55 56 56 55 55 56 56 55 55 55 56 57 58 56 53 51 50 48 46 44 43 42 41 41 40 40 39 39 39 39 40 40 40 40 40 40 41 41 42 42 42 43 43 44 44 44 44 45 45 45 45 46 46 47 47 48 49 50 52 54
44 46 47 47 48 48 48 48 50 51 53 55 56 58 60 61 61 61 60 59 56 54 54 54 56 57 58 58 57 57 58 58 58 58 58 56 56 58 58 55 52 50 49 47 45 43 41 41 40 40 40 40 40 40 40 40 40 40 40 40 40 41 41 41 41 42 42 43 43 43 44 44 44 44 45 45 45 46 46 47 47 48 49 50 51
47 48 49 50 50 49 48 48 50 52 54 55 57 60 62 63 63 62 62 61 59 57 55 56 58 59 59 58 57 58 59 59 59 59 58 56 54 57 59 57 54 51 48 47 45 43 42 41 40 40 40 40 40 40 40 40 40 40 40 40 40 41 41 41 41 41 41 42 42 43 43 44 44 44 45 45 45 45 45 46 46 47 47 48 49
49 50 51 51 51 50 48 48 50 52 54 56 59 61 63 63 62 62 62 61 60 58 57 59 61 61 58 57 58 59 59 59 59 59 59 56 53 54 58 60 56 52 48 47 46 43 42 41 40 40 39 39 39 40 40 40 40 40 40 40 40 40 40 41 41 41 41 42 42 42 42 43 43 44 44 44 45 45 45 45 46 46 47 47 48
50 51 52 52 52 50 48 49 50 53 56 58 60 61 62 62 62 62 62 61 61 61 62 65 66 61 56 55 57 59 59 60 60 60 59 54 50 51 58 61 57 51 48 46 45 43 42 41 40 40 39 39 39 39 39 39 40 40 40 40 40 40 40 40 40 40 40 41 41 42 42 42 43 43 43 44 44 44 45 45 45 46 46 47 48
51 52 53 52 52 49 48 50 52 54 57 59 61 61 62 62 62 63 63 64 65 65 66 69 67 61 56 54 55 57 59 60 60 61 58 52 49 52 59 62 57 51 47 46 44 43 42 41 40 39 39 39 39 39 39 39 39 39 39 39 39 40 40 40 40 40 40 41 41 41 42 42 42 42 42 43 43 43 44 44 45 45 46 47 47
53 54 54 53 52 50 50 52 53 56 58 59 60 61 61 62 62 63 65 66 64 62 65 69 65 61 57 54 54 56 58 57 57 59 57 50 49 55 60 62 57 52 49 45 43 42 41 40 40 39 39 38 38 38 38 38 38 39 39 39 39 39 40 40 40 40 40 41 41 41 41 41 42 42 42 42 42 43 43 44 44 45 46 47 47
56 57 57 55 55 54 54 55 56 57 58 58 59 59 60 61 60 60 60 58 57 59 64 64 59 57 55 54 55 55 56 55 54 56 53 47 50 56 60 62 57 55 53 47 43 42 41 40 39 39 38 38 37 37 37 37 37 38 39 39 39 39 40 40 40 40 41 41 41 41 41 41 41 41 41 41 41 42 43 44 44 45 45 46 47
59 60 59 59 59 59 59 60 59 59 59 58 58 57 58 58 58 58 60 61 64 64 61 56 52 52 51 50 52 53 53 53 54 53 49 45 50 56 60 61 58 58 58 48 42 41 40 39 39 38 38 37 37 37 37 36 37 37 38 38 38 39 39 39 40 40 41 41 41 41 41 40 41 41 40 41 41 42 43 43 44 44 45 45 46
61 62 62 62 63 63 64 63 61 60 60 59 59 59 61 63 65 68 69 69 67 60 53 49 49 48 48 48 50 51 51 53 53 50 47 47 52 55 57 58 57 60 60 48 41 40 39 39 38 37 37 36 37 36 36 36 36 37 37 37 38 38 39 39 39 40 40 41 41 40 40 40 39 40 40 40 41 42 42 43 43 44 44 45 46
62 62 63 64 65 66 66 65 64 64 63 63 64 65 67 68 69 69 67 65 61 55 50 47 46 46 46 47 48 50 52 51 49 47 47 50 51 51 53 55 56 61 59 47 40 39 38 37 37 36 36 36 36 36 36 36 36 36 36 37 37 38 38 39 39 40 40 40 40 40 39 39 39 39 40 41 41 42 42 42 42 43 44 45 46
62 63 64 65 66 68 67 67 66 66 66 67 67 67 67 67 66 66 64 62 61 57 50 46 45 44 43 45 48 51 49 45 44 46 48 49 48 48 50 53 56 60 55 44 39 38 37 36 35 35 35 35 35 35 35 35 36 36 36 36 37 37 38 39 40 40 40 40 39 39 38 38 39 39 40 41 41 42 42 43 42 42 43 44 45
62 64 66 67 68 68 68 68 68 68 68 68 68 68 68 67 66 65 63 61 59 56 50 45 43 40 41 44 46 45 41 40 43 45 45 46 47 49 52 55 58 56 48 41 38 37 36 35 34 34 34 34 34 34 34 34 35 35 35 36 37 37 39 40 40 40 40 39 38 37 37 37 38 39 39 40 40 41 42 42 42 42 42 43 44
65 67 68 69 69 69 70 70 69 69 69 69 69 69 68 66 65 62 60 56 52 47 43 41 39 38 38 39 38 37 38 40 42 43 45 47 50 53 55 56 53 47 41 38 37 36 34 34 34 34 33 33 33 33 33 34 34 34 35 36 37 38 39 40 41 40 39 38 37 37 37 37 38 38 38 38 39 40 40 40 41 41 41 41 42
68 68 69 69 69 70 70 70 70 69 69 68 68 67 65 62 59 56 52 47 40 35 33 33 32 31 31 31 33 36 39 41 42 45 48 51 53 54 53 49 43 39 37 37 35 34 33 33 33 33 33 33 32 32 33 33 33 33 34 35 37 38 40 41 40 39 38 38 37 37 38 38 38 38 38 38 38 39 39 38 38 39 39 40 40
67 68 69 69 69 69 69 69 68 67 66 64 62 59 57 55 52 49 44 35 29 26 26 26 27 28 30 33 36 38 40 42 46 49 52 53 51 48 43 39 37 36 35 34 33 33 33 32 33 33 33 33 32 31 32 33 33 32 32 33 36 39 40 40 39 38 38 38 37 37 38 39 38 38 38 38 38 38 38 37 37 37 38 38 38
67 68 68 68 68 67 66 65 63 61 59 57 54 52 50 48 47 44 38 30 25 23 24 26 28 31 33 36 38 41 44 48 51 52 52 48 42 38 35 35 35 34 33 32 32 32 31 31 32 32 32 32 31 31 32 32 32 31 31 32 35 38 39 39 38 38 38 37 37 38 39 39 38 38 38 38 38 37 36 35 36 37 38 38 38
66 67 67 67 66 64 62 60 58 55 53 51 49 47 45 44 43 41 37 32 30 30 30 31 33 36 38 41 45 48 51 52 51 48 43 38 34 33 33 33 32 32 31 31 31 31 30 31 31 31 31 31 30 30 31 31 31 30 30 32 35 37 38 37 37 37 37 37 38 38 39 39 39 38 38 37 36 35 34 36 37 37 37 37 38
66 66 65 64 61 59 57 55 53 51 49 47 45 44 43 42 40 38 36 33 32 33 34 37 39 42 44 46 47 48 47 44 41 36 33 31 30 31 31 30 30 30 30 30 30 30 30 29 29 29 30 30 29 29 30 30 30 29 29 31 34 35 36 36 36 37 37 38 38 38 39 39 39 39 38 36 33 33 35 36 37 37 37 38 39
63 62 60 58 55 54 52 51 49 47 45 44 42 42 41 40 38 36 34 31 30 29 30 31 32 34 34 35 35 34 33 31 30 29 29 29 29 29 29 29 29 29 29 29 29 29 28 28 28 28 29 29 28 27 28 29 29 28 29 31 33 33 34 35 35 36 37 37 38 38 39 40 40 40 37 33 31 32 34 36 36 37 37 38 39
59 57 55 53 52 51 49 47 45 43 42 41 41 40 40 38 36 34 31 29 27 26 25 25 25 25 25 25 26 26 26 26 26 26 27 27 27 27 27 27 27 28 28 28 28 27 27 27 27 27 28 28 27 26 26 28 28 27 28 30 32 32 33 34 35 35 36 36 37 38 39 40 40 37 33 31 30 30 32 34 35 35 36 38 39
55 53 52 50 49 47 45 44 43 41 40 40 39 39 38 36 35 32 30 28 26 25 25 24 23 23 23 23 23 23 24 24 25 25 26 26 26 26 26 27 27 27 27 27 26 26 26 25 26 26 27 27 26 25 25 26 27 26 27 29 31 32 33 34 34 35 35 36 37 38 39 39 37 33 31 30 30 29 30 32 32 33 36 39 39
51 50 49 48 46 44 43 42 41 40 39 37 37 36 36 35 33 31 30 28 27 25 25 24 24 23 23 23 23 23 24 24 25 25 25 25 26 26 26 26 26 26 26 26 25 25 25 24 25 25 26 26 26 25 25 26 26 25 25 27 30 32 33 34 34 35 36 36 37 37 37 35 33 31 30 30 29 29 28 29 30 34 38 39 39
48 48 47 45 43 42 41 40 39 38 36 35 35 34 34 33 32 31 29 28 27 26 26 25 25 25 24 24 24 24 25 25 25 25 25 25 25 25 25 25 26 26 26 25 25 25 25 24 24 25 25 25 25 26 26 26 26 25 25 26 30 32 33 34 35 36 36 37 36 36 35 32 30 30 29 29 30 28 26 28 33 36 37 37 39
47 46 44 42 41 39 38 37 36 35 34 34 33 33 32 32 31 30 29 28 27 26 26 25 25 25 25 25 25 25 25 25 25 26 25 24 24 24 25 25 25 25 25 24 24 24 25 24 24 24 24 24 25 27 27 26 26 26 26 26 29 31 32 33 36 37 37 36 35 34 32 31 30 30 29 29 29 26 26 31 35 35 35 37 42
45 43 42 40 39 37 36 35 35 34 33 32 31 31 31 30 30 29 28 28 27 26 26 26 26 25 25 25 25 25 26 26 26 25 24 24 24 23 23 24 24 24 24 23 24 24 25 24 24 23 24 25 26 27 27 27 27 27 27 27 28 30 31 33 36 37 36 35 34 33 32 31 30 30 29 29 28 28 30 34 36 36 39 41 44
43 41 40 38 37 35 34 34 33 32 32 31 30 30 29 29 29 28 28 28 27 26 26 26 26 26 26 26 26 26 26 26 25 25 24 24 23 23 23 23 24 24 24 24 24 25 25 25 24 24 24 25 27 27 27 28 28 28 28 28 28 30 31 32 35 36 36 35 33 33 32 31 30 30 31 31 30 31 33 35 36 39 41 41 42
41 39 38 36 35 34 33 32 31 31 30 30 30 29 28 28 28 28 27 27 27 27 27 27 26 26 26 25 25 25 26 26 26 25 25 24 24 24 24 24 24 25 25 25 25 25 26 26 26 25 25 26 27 27 27 28 28 29 29 28 29 30 31 32 33 34 34 33 33 32 32 31 31 31 32 32 32 32 34 35 37 39 40 40 42
39 38 36 35 33 32 31 30 30 29 29 29 29 28 28 28 28 27 27 27 27 26 26 26 26 26 26 26 25 25 25 26 26 26 25 25 25 25 24 24 25 26 26 26 26 26 27 27 27 28 28 27 27 27 27 27 28 29 29 29 29 30 30 31 32 32 32 32 32 32 32 32 32 32 32 32 31 32 34 36 38 39 40 40 41
38 37 35 34 32 30 30 29 29 28 28 28 27 28 27 27 27 27 27 27 27 27 26 27 27 26 26 26 26 26 26 25 26 26 26 26 26 26 26 26 26 27 28 27 27 28 28 29 30 30 30 29 28 27 27 27 28 29 29 29 30 30 30 30 31 31 30 30 30 31 31 32 31 30 30 31 32 33 34 36 37 38 39 40 41
37 36 34 32 31 30 29 29 28 28 28 27 27 27 27 27 27 27 27 27 27 27 27 27 27 27 27 27 27 27 27 26 26 27 27 27 27 27 27 27 28 29 30 29 29 29 29 30 32 32 32 32 29 27 27 27 28 28 30 31 30 29 28 29 30 30 30 30 30 30 30 29 28 28 29 30 31 32 33 34 35 36 37 38 38
35 35 33 31 30 29 29 29 28 28 27 27 27 27 27 27 27 27 27 27 27 27 27 28 28 28 28 28 28 28 28 28 28 28 27 28 28 29 29 28 28 30 31 31 30 30 30 31 33 33 33 33 31 28 27 28 28 28 30 31 30 29 29 30 31 31 31 31 30 29 28 27 27 28 28 29 29 30 30 31 32 34 35 35 36
34 33 31 31 30 29 28 28 28 28 27 27 27 27 27 28 28 28 28 28 28 27 28 28 28 28 28 28 28 28 29 29 28 28 28 27 27 28 29 30 29 30 30 31 31 30 30 32 34 34 34 34 32 30 28 28 28 29 30 31 31 31 32 32 32 33 33 33 31 30 29 29 29 29 29 28 29 29 29 30 31 32 33 33 34
33 32 31 30 29 28 28 27 27 27 28 28 28 28 28 28 29 29 29 30 29 29 29 29 29 29 29 29 29 29 29 29 29 29 29 28 26 25 26 28 30 30 30 30 31 31 31 33 35 36 36 36 35 34 32 31 29 29 30 31 32 33 33 34 35 36 35 33 32 32 32 32 31 31 30 29 29 30 30 29 30 30 31 31 32
Wind_Direction
335 334 333 332 330 328 326 324 322 320 318 315 312 310 307 306 304 303 302 300 299 298 297 296 296 296 295 295 295 294 294 294 293 293 293 292 293 293 293 293 293 293 292 292 292 292 290 289 289 288 286 285 285 284 283 282 281 281 281 280 279 278 277 276 275 274 272 269 267 266 265 265 264 263 263 262 263 263 263 263 263 263 263 263 264
334 333 332 332 330 328 326 325 323 321 319 317 315 313 310 308 306 304 302 300 299 297 296 295 294 293 293 293 292 292 292 292 291 291 291 291 291 291 291 290 289 290 289 289 289 288 288 287 286 286 285 283 282 281 281 281 280 279 279 278 277 277 276 275 275 275 274 273 271 269 267 266 266 266 265 264 264 264 264 265 264 264 264 264 264
334 334 333 332 330 328 327 325 324 322 320 319 316 315 313 311 309 306 304 301 299 298 296 294 294 293 292 292 291 291 291 291 291 290 290 290 290 290 289 288 286 286 286 287 286 286 285 284 284 283 283 282 280 280 279 279 278 277 276 276 275 275 274 274 273 273 273 273 273 272 270 268 267 266 267 267 266 265 265 265 264 264 264 263 263
335 334 334 333 331 329 328 326 324 323 321 319 317 316 314 312 310 308 305 303 300 298 296 295 294 293 292 292 291 291 291 290 290 290 290 289 289 289 288 287 286 285 285 285 285 284 283 283 283 282 281 280 279 279 278 278 277 276 275 274 274 272 272 271 271 270 270 270 270 270 271 270 268 266 266 266 266 266 265 264 264 263 263 262 261
335 334 334 332 331 329 328 326 324 322 320 317 316 315 313 311 310 308 306 303 301 299 297 295 294 293 292 291 291 290 290 289 289 289 290 289 289 288 288 287 286 285 285 285 284 284 283 282 282 282 281 280 279 279 278 278 277 276 275 274 273 272 271 270 269 268 268 268 267 267 267 267 267 267 265 263 263 264 263 263 262 262 261 260 259
334 333 332 331 330 328 326 324 321 320 318 316 315 313 311 310 308 307 305 303 302 300 298 296 294 293 292 291 290 289 288 288 288 289 290 289 288 288 287 287 286 286 286 285 285 284 284 283 283 282 281 280 280 279 278 278 277 276 275 274 273 272 271 270 268 267 267 267 266 266 265 264 264 265 264 262 260 260 260 261 261 261 260 259 259
332 331 330 328 327 326 324 322 320 319 316 315 314 312 310 309 307 306 304 303 301 299 298 296 295 293 292 290 289 288 288 288 288 289 290 289 288 288 287 287 287 287 287 286 286 285 285 284 283 282 281 280 280 279 278 278 277 276 275 274 273 273 272 270 269 268 267 266 266 266 265 265 264 263 262 262 260 257 256 258 259 259 260 260 259
329 328 327 326 325 324 323 321 320 318 316 315 314 313 311 309 307 305 303 302 301 299 297 296 295 293 292 291 290 289 289 289 289 290 290 290 289 289 289 289 289 288 287 287 286 286 286 285 284 283 282 281 280 279 278 277 276 276 275 274 274 273 272 271 270 269 267 267 266 266 266 266 265 264 263 262 261 258 255 253 254 255 257 258 259
327 326 326 325 324 323 322 321 320 318 317 316 314 313 311 309 307 305 303 302 300 298 297 296 295 293 292 292 291 291 291 291 291 291 291 291 291 291 291 290 290 289 288 287 287 286 286 285 284 283 282 281 280 279 278 277 276 275 275 274 274 273 272 272 271 270 269 268 267 266 266 267 267 267 266 265 264 262 258 254 251 250 251 253 255
324 324 325 325 324 323 322 321 320 319 317 316 315 313 311 308 306 304 303 302 300 298 297 295 294 293 293 292 292 292 293 292 292 291 292 292 292 292 291 291 290 289 288 287 287 286 286 285 284 283 282 281 280 279 278 277 276 275 275 274 273 273 273 272 272 271 271 270 268 267 266 266 267 267 267 267 267 265 263 260 256 252 249 248 250
321 321 323 324 325 324 322 320 319 318 317 316 315 313 311 309 306 303 302 301 299 297 295 294 293 293 293 293 293 294 293 293 292 291 292 291 291 291 291 290 290 289 288 287 287 286 285 285 283 282 281 280 279 278 277 276 276 275 274 274 273 273 273 272 272 272 271 270 270 269 268 267 267 266 267 267 268 267 266 264 263 261 256 251 250
321 320 321 322 324 324 322 320 319 317 316 316 315 315 313 312 308 305 303 301 299 297 295 294 293 293 294 294 294 294 293 292 291 291 291 291 290 290 290 290 289 289 288 287 286 285 285 284 282 281 280 279 278 278 277 276 275 274 273 273 272 272 272 272 271 271 271 271 270 270 269 268 268 267 267 267 267 267 267 266 266 265 263 258 256
322 322 322 322 323 323 322 320 319 317 317 317 316 316 316 315 312 309 306 304 301 299 298 296 296 296 296 295 294 293 292 292 291 291 291 290 290 289 289 289 289 288 287 286 285 284 284 282 281 280 279 278 277 276 276 275 275 274 273 272 272 271 271 271 271 271 270 270 270 270 269 269 268 268 267 267 267 267 267 267 266 266 266 263 261
324 324 323 322 323 323 322 321 320 318 318 318 317 317 316 315 314 311 309 306 304 302 301 299 299 298 296 294 293 293 293 292 292 292 292 291 290 290 289 289 289 288 287 285 284 283 283 281 280 279 278 277 276 275 275 274 274 273 273 272 271 271 271 270 270 270 270 270 270 269 269 269 269 269 268 268 268 268 268 268 267 267 266 265 264
325 323 322 322 322 322 322 320 320 319 319 318 317 317 316 315 314 312 310 308 304 302 301 301 300 298 296 294 294 293 293 293 293 294 294 294 293 292 291 290 288 287 286 284 283 282 281 279 278 277 276 275 274 274 273 273 273 272 272 272 271 271 271 271 271 270 270 270 270 270 270 270 270 269 269 268 268 268 268 269 268 268 267 266 265
324 322 321 321 321 321 321 320 319 319 319 318 317 316 315 314 312 311 310 308 305 303 302 301 301 299 298 296 295 295 295 296 296 297 298 298 297 295 293 291 288 286 284 282 281 280 278 277 276 275 274 273 273 272 272 272 272 272 271 271 271 272 272 272 272 272 272 271 271 271 271 271 271 270 270 270 269 269 269 269 269 269 269 267 266
322 321 320 320 320 319 319 319 319 319 318 317 317 316 314 313 313 312 310 309 308 306 305 304 304 304 304 303 301 300 300 300 300 300 301 301 301 299 296 292 289 285 283 281 279 277 276 274 273 272 272 272 272 272 272 272 272 272 272 272 272 272 272 272 273 273 273 273 272 272 272 272 272 271 271 271 270 270 270 269 269 269 270 270 268
321 321 320 319 319 318 318 319 318 318 318 316 316 315 314 313 313 312 310 310 311 310 308 307 307 307 307 306 305 303 302 302 302 302 302 301 301 301 298 293 290 286 282 280 277 275 274 272 271 271 271 271 271 272 272 272 272 272 272 273 273 273 273 273 273 273 273 273 273 273 273 272 272 272 272 272 271 271 271 270 270 270 270 270 271
321 320 319 318 318 318 318 318 318 317 316 315 314 313 312 312 311 311 310 311 311 310 308 308 307 307 306 305 303 301 300 301 301 300 299 297 298 300 299 295 292 288 283 279 276 273 272 270 270 270 270 271 271 271 272 272 272 272 273 273 273 273 274 273 273 273 273 273 272 272 272 272 272 272 272 272 271 271 271 271 271 271 271 271 271
321 320 319 318 318 318 318 318 317 315 314 313 312 311 310 310 310 309 309 310 309 308 307 307 307 306 304 302 300 298 297 298 298 298 297 295 297 300 301 298 295 290 284 278 274 272 270 269 268 269 270 270 271 271 272 272 272 273 273 273 274 273 274 273 273 273 273 273 272 272 272 272 272 272 272 272 272 272 271 271 271 271 271 271 271
321 320 319 318 318 318 318 316 314 312 311 310 309 309 309 309 309 308 308 308 306 305 304 305 306 305 302 300 299 296 295 296 296 296 295 294 296 299 301 301 297 292 285 278 273 270 269 268 268 269 269 270 270 271 271 271 272 273 273 273 273 273 274 273 273 273 273 273 273 272 272 272 272 271 272 272 272 272 272 272 272 271 271 271 271
321 320 319 319 318 317 316 314 312 310 309 309 308 308 308 308 308 307 306 305 304 303 302 304 307 306 302 299 297 294 293 295 296 296 294 293 295 299 301 301 299 294 286 278 272 270 268 268 268 268 269 269 270 270 270 271 272 272 273 273 273 273 273 273 273 273 273 273 273 273 272 272 272 272 272 272 272 272 272 271 272 272 271 271 271
322 321 320 320 319 317 315 312 310 309 308 308 307 307 307 306 306 305 304 303 303 303 303 307 308 306 302 298 294 292 293 294 295 296 293 292 295 300 301 300 299 297 290 279 272 270 268 268 268 268 269 269 269 270 270 271 272 272 272 272 273 273 273 273 273 273 273 273 273 273 273 273 273 273 273 273 272 272 272 271 271 271 271 271 271
323 322 322 322 320 318 316 313 311 309 308 308 307 307 305 304 303 301 300 300 301 302 304 306 305 303 302 298 293 292 292 293 295 295 292 291 296 300 301 300 300 302 296 283 273 271 269 269 269 269 269 269 269 270 270 270 271 271 272 272 272 273 273 273 273 273 273 273 273 273 274 274 274 274 273 273 273 273 272 272 271 270 270 270 270
324 323 323 323 321 320 318 315 314 312 312 310 308 306 302 299 296 295 295 295 296 298 300 301 298 297 298 296 293 292 292 293 293 290 287 289 295 299 299 299 299 304 302 287 273 271 270 269 270 269 270 271 270 270 270 270 271 271 271 271 271 272 272 272 272 272 273 273 273 274 274 274 274 274 274 274 274 273 272 272 271 270 270 269 269
324 323 323 323 322 321 320 319 318 316 314 310 306 302 297 295 294 294 296 296 298 300 301 299 296 296 296 295 292 289 291 292 289 284 282 285 293 296 296 296 296 302 304 291 273 271 270 269 270 269 270 271 270 271 271 271 271 271 271 271 271 271 271 271 272 272 272 273 273 274 274 274 275 275 275 274 274 273 272 272 272 271 271 270 269
323 323 323 323 322 322 321 320 318 315 311 307 303 300 297 297 297 297 298 299 301 303 303 300 298 298 297 294 290 288 289 288 283 278 277 283 290 291 291 292 293 300 304 290 272 271 270 268 270 269 270 270 270 271 271 271 271 271 271 271 271 272 271 271 272 272 272 273 273 274 274 275 275 275 275 274 273 273 272 272 273 272 272 272 271
323 323 323 322 322 321 320 318 315 312 309 306 303 302 301 301 301 301 302 304 305 306 303 299 298 298 296 293 289 285 282 278 274 274 276 281 285 285 286 288 291 299 301 287 271 272 270 269 270 270 270 270 270 271 271 270 271 270 271 271 271 272 272 272 272 272 272 273 273 274 275 276 276 276 275 274 274 274 274 273 273 273 273 272 272
322 322 321 320 320 320 319 317 315 313 311 309 308 307 307 306 306 306 305 305 305 305 303 298 295 296 296 293 284 277 272 270 270 272 275 279 283 286 288 290 294 299 296 281 272 273 271 270 272 271 271 271 271 271 271 271 271 271 271 272 272 272 272 272 272 271 272 273 274 276 277 277 277 277 277 277 277 277 277 276 275 275 274 273 273
320 320 320 320 320 320 319 318 316 315 314 313 313 311 310 309 307 306 305 304 303 302 299 295 293 295 295 287 276 269 267 268 269 273 277 282 287 291 294 297 298 297 288 275 273 273 272 273 274 273 274 273 272 272 272 271 272 271 271 271 271 272 272 271 272 272 273 275 276 278 278 277 277 277 277 278 278 278 278 278 278 277 276 275 274
319 320 320 320 321 320 320 319 318 318 317 316 314 313 311 310 309 309 308 307 304 302 299 296 295 293 286 276 268 265 266 269 272 278 284 289 294 298 300 300 297 289 279 274 275 274 275 277 276 275 276 275 274 274 272 272 271 271 271 272 271 271 270 271 271 272 274 275 276 276 275 274 275 275 275 275 275 276 276 277 277 277 277 277 276
319 320 321 321 322 321 321 321 320 320 319 317 316 315 314 313 313 313 312 311 310 309 305 298 290 281 271 264 263 266 269 274 280 286 292 297 300 301 300 296 289 280 276 276 276 277 278 278 278 278 278 276 276 275 273 272 271 271 272 272 272 272 271 271 272 274 276 276 276 276 276 276 276 276 275 275 274 274 275 276 277 277 278 277 276
320 321 322 322 322 322 322 322 321 321 320 319 318 318 318 318 318 318 316 315 314 307 294 282 271 264 261 263 266 271 277 284 290 295 299 302 302 299 294 288 281 278 278 278 278 280 280 279 279 279 278 277 277 275 274 273 272 272 272 272 272 272 273 274 276 278 278 279 279 279 279 279 279 279 279 278 277 277 278 278 278 276 275 273 271
321 322 323 323 323 323 323 322 322 322 323 323 323 323 322 322 322 320 316 311 303 291 279 270 265 264 266 269 275 282 288 293 298 300 301 300 297 292 287 282 280 280 280 281 282 282 281 280 280 279 278 278 277 275 274 274 273 273 272 271 271 272 275 277 279 279 280 281 281 281 280 281 281 281 280 280 280 280 281 280 277 274 272 270 269
323 323 323 323 324 324 323 324 325 326 328 329 329 328 327 325 324 322 318 308 296 286 279 275 273 274 277 282 287 292 295 297 299 299 298 296 292 287 284 282 282 283 283 284 284 283 282 281 280 280 279 278 277 276 275 274 274 273 271 271 271 273 276 278 279 280 281 282 282 282 282 282 282 281 280 280 282 283 281 278 275 273 272 270 268
323 323 323 324 324 324 325 327 329 331 333 335 334 334 332 330 328 325 322 315 305 297 290 285 284 285 287 290 292 294 296 297 297 297 295 292 288 286 285 285 285 286 286 286 286 285 284 283 282 281 280 278 277 276 275 275 274 273 272 271 272 274 276 277 279 280 281 281 282 282 282 282 281 281 281 283 286 285 281 278 276 275 273 270 268
322 322 323 324 325 326 328 330 333 336 338 339 339 338 336 334 332 330 328 325 321 316 309 304 301 299 298 298 298 298 298 298 298 297 294 291 289 289 289 289 289 290 289 289 288 287 286 285 284 282 280 279 278 277 276 276 275 274 274 273 274 275 276 277 278 279 280 281 281 281 281 281 280 281 283 286 286 283 280 279 278 277 275 273 271
322 323 324 325 327 329 330 333 337 341 343 343 342 341 340 338 336 334 333 331 329 327 324 321 318 315 313 310 307 305 304 302 299 297 294 294 294 294 294 294 294 293 292 290 289 288 288 286 285 283 282 281 280 279 278 277 277 277 276 276 277 277 278 278 279 279 279 279 279 279 279 279 280 282 285 284 281 279 278 277 277 277 276 274 272
323 325 326 328 329 331 334 338 342 344 346 346 345 343 343 342 341 339 338 337 336 334 331 328 325 321 319 315 312 309 306 304 302 300 300 300 300 300 299 298 296 295 293 292 291 290 289 288 286 285 284 284 283 282 280 280 280 280 279 279 279 279 279 279 279 279 278 277 276 276 276 278 281 283 282 279 277 276 275 276 277 276 273 271 270
325 327 329 330 332 334 338 341 344 347 348 347 346 345 345 345 345 345 344 342 341 339 336 333 329 327 323 320 317 314 311 309 308 306 306 306 305 304 303 301 299 297 296 295 294 293 292 291 289 288 287 288 287 286 284 283 283 283 282 281 280 281 281 281 280 279 278 277 276 276 277 280 281 279 276 275 273 273 276 278 275 272 271 272 274
327 329 331 333 334 337 341 344 346 348 348 348 348 348 348 348 348 348 347 345 343 341 338 336 333 331 328 325 322 319 316 315 312 311 311 310 308 306 304 303 302 300 299 299 298 296 294 293 292 291 291 291 289 288 287 286 287 286 284 282 281 282 283 282 281 280 279 279 279 280 281 281 279 275 273 272 271 273 275 274 270 270 273 274 274
330 332 333 334 337 340 343 346 348 348 348 349 349 349 349 350 349 348 347 346 344 341 339 337 334 332 330 327 325 322 320 318 316 315 314 313 311 309 308 307 305 303 302 302 299 298 296 295 295 294 293 292 291 290 290 290 290 288 286 284 283 283 283 283 282 281 281 282 283 283 283 281 278 276 274 272 272 273 271 267 267 268 268 266 267
333 334 334 336 338 341 344 346 348 348 348 349 350 350 350 349 349 348 347 345 343 341 339 337 335 333 331 329 327 325 323 322 320 318 318 317 315 313 311 309 306 304 304 302 300 299 298 298 297 296 295 293 292 292 293 293 292 290 288 287 285 285 284 283 282 283 284 285 285 284 283 281 279 276 273 271 271 269 266 265 266 266 266 266 269
334 334 335 337 340 343 345 347 348 348 348 348 349 349 350 349 348 348 346 344 343 341 339 337 336 334 333 331 330 329 327 325 323 322 321 319 316 314 313 310 307 306 304 303 302 300 300 299 298 296 295 293 293 293 294 294 293 291 290 288 286 285 283 281 282 284 285 286 285 283 281 280 277 275 272 271 271 271 271 270 269 269 271 273 274
334 334 336 339 341 344 346 346 347 347 347 348 348 349 349 348 347 347 345 344 343 341 340 338 337 336 334 333 332 330 328 327 325 323 322 319 317 315 313 310 308 306 304 303 302 301 300 299 297 295 293 292 292 294 294 294 293 291 290 288 286 283 282 281 282 283 284 283 282 281 279 278 276 275 275 275 275 275 274 273 271 272 274 275 274
334 335 337 340 343 344 345 345 346 347 347 347 347 347 348 347 346 345 344 343 342 341 339 338 337 336 334 332 331 329 327 325 324 322 321 319 316 314 313 310 308 305 303 303 302 301 300 299 296 295 293 293 293 294 294 294 292 291 289 288 285 283 282 281 281 281 280 279 277 277 276 275 275 276 278 277 275 273 272 272 273 275 276 276 276
334 336 339 341 342 343 344 345 346 346 347 347 347 346 346 345 345 344 343 342 340 339 337 336 336 334 333 332 330 328 326 324 322 321 319 317 315 314 312 311 307 304 303 303 302 302 300 298 296 294 293 293 293 294 294 293 291 290 290 287 285 284 284 283 282 280 278 276 275 273 273 273 274 275 274 273 271 270 270 271 272 273 274 275 275
335 337 340 341 341 342 344 345 345 346 346 346 346 345 345 344 343 342 341 341 339 338 336 335 334 333 331 330 328 326 325 323 321 319 318 316 314 313 311 310 307 305 304 304 303 303 301 298 296 295 295 295 295 295 294 291 290 290 288 285 285 286 285 283 281 279 277 275 273 270 269 269 269 268 266 266 267 268 268 268 268 269 271 272 272
336 338 339 340 341 343 344 344 344 345 346 346 345 344 343 343 342 341 340 340 338 337 335 333 332 332 330 329 327 325 324 323 321 319 317 316 314 313 311 310 307 305 304 304 304 303 300 297 295 295 295 295 295 294 292 290 290 289 287 287 288 287 285 282 281 281 280 278 276 275 275 275 273 271 269 269 269 269 269 270 270 270 271 272 273
337 338 338 340 341 342 343 343 343 343 345 345 345 344 343 342 341 340 339 338 337 336 334 332 332 332 330 329 328 326 324 323 321 320 318 316 315 313 312 310 308 306 305 304 304 302 300 298 296 297 297 297 298 297 294 293 293 293 293 294 294 291 289 288 287 286 286 286 288 290 289 286 284 281 279 277 274 273 272 272 272 272 273 274 273
338 338 339 340 341 341 341 342 342 343 344 345 344 344 342 341 340 339 338 337 337 337 335 334 333 333 332 330 329 328 326 325 323 322 321 319 317 315 312 310 309 308 307 306 305 305 303 301 301 301 302 302 303 302 300 299 299 298 297 296 293 291 290 289 287 287 289 291 293 292 290 287 286 284 283 280 277 276 275 274 273 273 273 274 273